パンスターズ彗星

P/2019 A7 ( PanSTARRS )

English version
Home page
Updated on January 25, 2019

---------------------------------------------------------------------

・ プロフィール

発見日 2019年1月8日
発見光度 20.4等
発見者 Pan-STARRS 1 telescope (Haleakala)

・ 軌道要素

Epoch 2018 Jan. 2.0 TT = JDT 2458120.5
T 2018 Jan. 8.32972 TT                                  MPCW
q   2.6760267            (2000.0)            P               Q
n   0.17309771     Peri.  119.60838     +0.72375623     -0.62139623
a   3.1886621      Node   280.52535     +0.47888018     +0.76538701
e   0.1607682      Incl.   17.77068     +0.49684071     +0.16747969
P   5.69
From 53 observations 2017 Oct. 3-2019 Jan. 17, mean residual 0".4.

・ 光度変化

        m1 = 14.0 + 5 logΔ + 10.0 log r

---------------------------------------------------------------------

軌道要素はM.P.E.C. 2019-B66に掲載されたものです。
光度グラフはComet for Windowsで作成したものです。

---------------------------------------------------------------------

Copyright(C) Seiichi Yoshida (comet@aerith.net). All rights reserved.